Scappoose, OR

10:03 PM PDT on June 24, 2017 (GMT -0700)
Scappoose Industrial

Weather History for KSPB - March, 2013

Change the Weather History Date:

Friday, March 8, 2013

  Actual Average Record
Temperature  
Mean Temperature 44 °F -  
Max Temperature 59 °F - 71 °F (2004)
Min Temperature 29 °F - 27 °F (2012)
Degree Days  
Heating Degree Days 21    
Month to date heating degree days 166  
Since 1 July heating degree days 3547  
Cooling Degree Days 0    
Month to date cooling degree days 0  
Year to date cooling degree days 0  
Moisture  
Dew Point 33 °F    
Average Humidity 68    
Maximum Humidity 100    
Minimum Humidity 36    
Precipitation  
Precipitation 0.00 in - 0.65 in (2014)
Month to date precipitation 0.71  
Year to date precipitation 4.57  
Sea Level Pressure  
Sea Level Pressure 30.08 in    
Wind  
Wind Speed 4 mph (NNW)    
Max Wind Speed 12 mph    
Max Gust Speed 15 mph    
Visibility 8 miles    
Events Fog    
T = Trace of Precipitation, MM = Missing Value Source: NWS Daily Summary

Daily Weather History Graph

Daily Weather History Graph

Search for Another Location

Airport or City:

Trip Planner

Search our weather history database for the weather conditions in past years. The results will help you decide how hot, cold, wet, or windy it might be!

Date:

Astronomy

Mar. 08, 2013 Rise Set
Actual Time 6:36 AM PST 6:08 PM PST
Civil Twilight 6:06 AM PST 6:38 PM PST
Nautical Twilight 5:32 AM PST 7:12 PM PST
Astronomical Twilight 4:57 AM PST 7:47 PM PST
Moon 4:33 AM PST (3/8) 3:02 PM PST (3/8)
Length of Visible Light 12h 31m
Length of Day
11h 31m
Waning Crescent, 11% of the Moon is Illuminated
Mar 8
Waning Crescent
Mar 11
New
Mar 19
First Quarter
Mar 27
Full
Apr 2
Last Quarter

Hourly Weather History & Observations

Time (PST) Temp. Windchill Dew Point Humidity Pressure Visibility Wind Dir Wind Speed Gust Speed Precip Events Conditions
12:53 AM 34.0 °F 31.0 °F 32.0 °F 92% 30.05 in 10.0 mi NW 3.5 mph - N/A   Clear
1:53 AM 32.0 °F - 30.9 °F 96% 30.06 in 10.0 mi Calm Calm - N/A   Clear
2:53 AM 30.9 °F - 30.0 °F 96% 30.05 in 10.0 mi Calm Calm - N/A   Clear
3:53 AM 30.0 °F - 28.9 °F 96% 30.05 in 7.0 mi Calm Calm - N/A   Clear
4:30 AM 30.2 °F 26.7 °F 28.4 °F 93% 30.05 in 8.0 mi West 3.5 mph - N/A   Scattered Clouds
4:40 AM 30.2 °F - 28.4 °F 93% 30.05 in 7.0 mi Calm Calm - N/A   Mostly Cloudy
4:53 AM 30.9 °F - 30.0 °F 96% 30.05 in 7.0 mi Calm Calm - N/A   Scattered Clouds
5:25 AM 30.2 °F 26.7 °F 28.4 °F 93% 30.06 in 10.0 mi West 3.5 mph - N/A   Mostly Cloudy
5:53 AM 30.0 °F 26.5 °F 28.9 °F 96% 30.06 in 10.0 mi NW 3.5 mph - N/A   Mostly Cloudy
6:11 AM 32.0 °F 28.7 °F 30.2 °F 93% 30.06 in 1.8 mi NW 3.5 mph - N/A   Overcast
6:26 AM 32.0 °F - 30.2 °F 93% 30.07 in 1.2 mi Calm Calm - N/A   Overcast
6:37 AM 32.0 °F - 30.2 °F 93% 30.07 in 0.2 mi Calm Calm - N/A Fog Fog
6:53 AM 30.9 °F - 30.0 °F 96% 30.07 in 0.2 mi Calm Calm - N/A Fog Light Freezing Fog
7:45 AM 30.2 °F - 30.2 °F 100% 30.07 in 1.0 mi Calm Calm - N/A   Mist
7:49 AM 30.2 °F - 30.2 °F 100% 30.07 in 3.0 mi Calm Calm - N/A   Mostly Cloudy
7:53 AM 32.0 °F - 32.0 °F 100% 30.07 in 5.0 mi Calm Calm - N/A   Mostly Cloudy
8:05 AM 33.8 °F - 33.8 °F 100% 30.07 in 5.0 mi Calm Calm - N/A   Partly Cloudy
8:53 AM 39.0 °F 36.8 °F 37.0 °F 93% 30.08 in 10.0 mi Variable 3.5 mph - N/A   Clear
9:53 AM 46.0 °F 42.5 °F 36.0 °F 68% 30.08 in 10.0 mi NNE 6.9 mph - N/A   Clear
10:53 AM 48.0 °F - 36.0 °F 63% 30.08 in 10.0 mi North 6.9 mph - N/A   Clear
11:53 AM 52.0 °F - 37.0 °F 57% 30.07 in 10.0 mi Variable 4.6 mph - N/A   Clear
12:53 PM 55.0 °F - 35.1 °F 47% 30.06 in 10.0 mi Variable 5.8 mph - N/A   Clear
1:53 PM 57.0 °F - 33.1 °F 40% 30.04 in 10.0 mi NNE 5.8 mph - N/A   Clear
2:53 PM 59.0 °F - 32.0 °F 36% 30.04 in 10.0 mi North 8.1 mph - N/A   Clear
3:53 PM 57.9 °F - 33.1 °F 39% 30.05 in 10.0 mi NNW 11.5 mph - N/A   Clear
4:53 PM 57.0 °F - 32.0 °F 39% 30.06 in 10.0 mi North 6.9 mph - N/A   Clear
5:53 PM 52.0 °F - 35.1 °F 53% 30.08 in 10.0 mi NNW 4.6 mph - N/A   Clear
6:53 PM 48.9 °F - 35.1 °F 59% 30.12 in 10.0 mi NW 6.9 mph - N/A   Clear
7:53 PM 46.9 °F - 36.0 °F 66% 30.14 in 10.0 mi NW 5.8 mph - N/A   Clear
8:53 PM 46.9 °F - 37.0 °F 68% 30.16 in 10.0 mi NNW 5.8 mph - N/A   Clear
9:53 PM 45.0 °F 43.5 °F 37.0 °F 74% 30.18 in 10.0 mi NNW 3.5 mph - N/A   Clear
10:53 PM 43.0 °F - 36.0 °F 76% 30.20 in 10.0 mi Calm Calm - N/A   Clear
11:53 PM 42.1 °F 40.2 °F 35.1 °F 76% 30.22 in 10.0 mi NW 3.5 mph - N/A   Clear